STARLINK BK (44292 NORAD) Tracking and Keplerian Element Data

This shows tracking and keplerian element data for the satellite.

Feedback or suggestion? Click here.




ElementValue
Catalog44292
NameSTARLINK BK
Epoch Orbit385
Epoch Day173.9018149
Epoch Year2019
RAAN38.7142
Inclination53.008
Eccentricity0.0002391
Argument of Perigee125.3397
Mean Anonmoly234.7814
Mean Motion15.05471115
Decay Rate1.465E-05
L11 44292U 19029BK 19173.90181490 .00001465 00000-0 12003-3 0 9990
L22 44292 53.0080 38.7142 0002391 125.3397 234.7814 15.05471115 3854

Live tracking and technical data element details for STARLINK BK (NORAD 44292). STARLINK BK can be tracked NOW for your location showing map with azimuth and elevation plus other details from your city location.

Track the satellite on the map from your city or location and see movement details for azimuth, elevation, latitude, longitude, range, height, and movement on the map or in text.







IsCatalogInMostPopularTable: catalog: 44292, numindb: 98
Update: records affected: 1



GetName: 44292 STARLINK BK

Hit Count: updated at: Sun, 21 Jul 2019 20:56:04 GMT